Time,TemperatureF,DewpointF,PressureIn,WindDirection,WindDirectionDegrees,WindSpeedMPH,WindSpeedGustMPH,Humidity,HourlyPrecipIn,Conditions,Clouds,dailyrainin,SoftwareType,DateUTC
2013-02-13 00:01:00,19.2,17.0,29.90,NE,44,3.0,4.0,89,0.00,,,0.00,weatherlink.com 1.10,2013-02-13 06:01:00,
2013-02-13 00:16:00,19.6,17.0,29.90,NE,48,2.0,4.0,90,0.00,,,0.00,weatherlink.com 1.10,2013-02-13 06:16:00,
2013-02-13 00:31:00,20.8,18.0,29.90,East,86,5.0,6.0,89,0.00,,,0.00,weatherlink.com 1.10,2013-02-13 06:31:00,
2013-02-13 00:46:00,21.3,18.0,29.89,ENE,64,5.0,6.0,88,0.00,,,0.00,weatherlink.com 1.10,2013-02-13 06:46:00,
2013-02-13 01:01:00,21.9,19.0,29.89,ENE,77,3.0,6.0,87,0.00,,,0.00,weatherlink.com 1.10,2013-02-13 07:01:00,
2013-02-13 01:16:00,22.4,19.0,29.88,ENE,67,3.0,7.0,88,0.00,,,0.00,weatherlink.com 1.10,2013-02-13 07:16:00,
2013-02-13 01:31:00,22.5,19.0,29.88,ENE,67,3.0,6.0,87,0.00,,,0.00,weatherlink.com 1.10,2013-02-13 07:31:00,
2013-02-13 01:46:00,22.3,19.0,29.88,ENE,60,4.0,5.0,88,0.00,,,0.00,weatherlink.com 1.10,2013-02-13 07:46:00,
2013-02-13 02:01:00,22.3,19.0,29.88,East,83,6.0,6.0,88,0.00,,,0.00,weatherlink.com 1.10,2013-02-13 08:01:00,
2013-02-13 02:16:00,22.5,20.0,29.88,ENE,60,3.0,5.0,88,0.00,,,0.00,weatherlink.com 1.10,2013-02-13 08:16:00,
2013-02-13 02:31:00,22.4,19.0,29.88,East,85,6.0,7.0,88,0.00,,,0.00,weatherlink.com 1.10,2013-02-13 08:31:00,
2013-02-13 02:46:00,22.3,20.0,29.87,East,79,3.0,7.0,89,0.00,,,0.00,weatherlink.com 1.10,2013-02-13 08:46:00,
2013-02-13 03:01:00,22.5,20.0,29.86,ENE,58,4.0,6.0,89,0.00,,,0.00,weatherlink.com 1.10,2013-02-13 09:01:00,
2013-02-13 03:16:00,21.8,19.0,29.86,NNE,33,5.0,5.0,88,0.00,,,0.00,weatherlink.com 1.10,2013-02-13 09:16:00,
2013-02-13 03:31:00,20.4,18.0,29.86,NNE,25,3.0,4.0,89,0.00,,,0.00,weatherlink.com 1.10,2013-02-13 09:31:00,
2013-02-13 03:46:00,19.4,17.0,29.86,NE,47,4.0,5.0,90,0.00,,,0.00,weatherlink.com 1.10,2013-02-13 09:46:00,
2013-02-13 04:01:00,18.8,17.0,29.86,ENE,57,4.0,5.0,91,0.00,,,0.00,weatherlink.com 1.10,2013-02-13 10:01:00,
2013-02-13 04:16:00,18.1,16.0,29.86,ENE,57,3.0,5.0,91,0.00,,,0.00,weatherlink.com 1.10,2013-02-13 10:16:00,
2013-02-13 04:31:00,17.5,16.0,29.85,ENE,60,4.0,5.0,92,0.00,,,0.00,weatherlink.com 1.10,2013-02-13 10:31:00,
2013-02-13 04:46:00,17.3,15.0,29.85,NE,34,5.0,6.0,92,0.00,,,0.00,weatherlink.com 1.10,2013-02-13 10:46:00,
2013-02-13 05:01:00,17.6,16.0,29.84,NNE,30,3.0,5.0,92,0.00,,,0.00,weatherlink.com 1.10,2013-02-13 11:01:00,
2013-02-13 05:19:00,18.1,16.0,29.84,NNE,32,4.0,5.0,92,0.00,,,0.00,weatherlink.com 1.10,2013-02-13 11:19:00,
2013-02-13 05:32:00,18.3,16.0,29.83,NNE,18,6.0,7.0,92,0.00,,,0.00,weatherlink.com 1.10,2013-02-13 11:32:00,
2013-02-13 05:47:00,18.6,17.0,29.83,NE,34,3.0,5.0,92,0.00,,,0.00,weatherlink.com 1.10,2013-02-13 11:47:00,
2013-02-13 06:01:00,18.4,17.0,29.84,NE,41,4.0,5.0,92,0.00,,,0.00,weatherlink.com 1.10,2013-02-13 12:01:00,
2013-02-13 06:16:00,18.2,16.0,29.83,NNE,25,4.0,5.0,92,0.00,,,0.00,weatherlink.com 1.10,2013-02-13 12:16:00,
2013-02-13 06:31:00,18.3,16.0,29.82,NNE,26,5.0,6.0,92,0.00,,,0.00,weatherlink.com 1.10,2013-02-13 12:31:00,
2013-02-13 06:47:00,18.0,16.0,29.82,NNE,26,3.0,5.0,92,0.00,,,0.00,weatherlink.com 1.10,2013-02-13 12:47:00,
2013-02-13 07:01:00,18.1,16.0,29.82,NNE,25,4.0,5.0,92,0.00,,,0.00,weatherlink.com 1.10,2013-02-13 13:01:00,
2013-02-13 07:16:00,18.3,16.0,29.82,NNE,29,4.0,6.0,92,0.00,,,0.00,weatherlink.com 1.10,2013-02-13 13:16:00,
2013-02-13 07:31:00,18.4,17.0,29.81,NNE,18,5.0,6.0,92,0.00,,,0.00,weatherlink.com 1.10,2013-02-13 13:31:00,
2013-02-13 07:46:00,19.0,17.0,29.82,NNE,30,4.0,6.0,92,0.00,,,0.00,weatherlink.com 1.10,2013-02-13 13:46:00,
2013-02-13 08:02:00,19.4,18.0,29.81,North,6,5.0,7.0,92,0.00,,,0.00,weatherlink.com 1.10,2013-02-13 14:02:00,
2013-02-13 08:17:00,20.0,18.0,29.81,NNE,30,4.0,8.0,91,0.00,,,0.00,weatherlink.com 1.10,2013-02-13 14:17:00,
2013-02-13 08:32:00,20.9,19.0,29.81,North,4,5.0,7.0,90,0.00,,,0.00,weatherlink.com 1.10,2013-02-13 14:32:00,
2013-02-13 08:47:00,21.3,19.0,29.81,NE,49,2.0,4.0,90,0.00,,,0.00,weatherlink.com 1.10,2013-02-13 14:47:00,
2013-02-13 09:02:00,22.0,19.0,29.81,NNE,23,4.0,8.0,88,0.00,,,0.00,weatherlink.com 1.10,2013-02-13 15:02:00,
2013-02-13 09:17:00,23.0,20.0,29.80,NNE,32,6.0,9.0,87,0.00,,,0.00,weatherlink.com 1.10,2013-02-13 15:17:00,
2013-02-13 09:32:00,23.4,20.0,29.80,NNE,21,6.0,10.0,87,0.00,,,0.00,weatherlink.com 1.10,2013-02-13 15:32:00,
2013-02-13 09:47:00,23.2,20.0,29.80,NE,40,5.0,9.0,86,0.00,,,0.00,weatherlink.com 1.10,2013-02-13 15:47:00,
2013-02-13 10:02:00,24.6,21.0,29.79,NNE,18,9.0,11.0,85,0.00,,,0.00,weatherlink.com 1.10,2013-02-13 16:02:00,
2013-02-13 10:17:00,25.6,21.0,29.79,NNE,22,12.0,12.0,84,0.00,,,0.00,weatherlink.com 1.10,2013-02-13 16:17:00,
2013-02-13 10:32:00,26.4,22.0,29.79,NNE,32,7.0,11.0,84,0.00,,,0.00,weatherlink.com 1.10,2013-02-13 16:32:00,
2013-02-13 10:47:00,27.6,23.0,29.80,NNE,28,9.0,12.0,83,0.00,,,0.00,weatherlink.com 1.10,2013-02-13 16:47:00,
2013-02-13 11:02:00,28.7,24.0,29.79,NNE,30,4.0,11.0,82,0.00,,,0.00,weatherlink.com 1.10,2013-02-13 17:02:00,
2013-02-13 11:17:00,30.2,25.0,29.79,NNW,345,9.0,11.0,80,0.00,,,0.00,weatherlink.com 1.10,2013-02-13 17:17:00,
2013-02-13 11:32:00,30.9,25.0,29.78,NNE,19,10.0,10.0,78,0.00,,,0.00,weatherlink.com 1.10,2013-02-13 17:32:00,
2013-02-13 11:47:00,31.8,26.0,29.77,NE,41,7.0,11.0,78,0.00,,,0.00,weatherlink.com 1.10,2013-02-13 17:47:00,
2013-02-13 12:02:00,32.7,26.0,29.76,North,8,8.0,11.0,77,0.00,,,0.00,weatherlink.com 1.10,2013-02-13 18:02:00,
2013-02-13 12:17:00,34.3,27.0,29.75,NNE,22,7.0,9.0,75,0.00,,,0.00,weatherlink.com 1.10,2013-02-13 18:17:00,
2013-02-13 12:32:00,35.1,28.0,29.75,East,82,5.0,9.0,74,0.00,,,0.00,weatherlink.com 1.10,2013-02-13 18:32:00,
2013-02-13 12:49:00,34.9,27.0,29.74,ENE,63,5.0,11.0,73,0.00,,,0.00,weatherlink.com 1.10,2013-02-13 18:49:00,
2013-02-13 13:03:00,34.9,27.0,29.73,NE,51,9.0,12.0,73,0.00,,,0.00,weatherlink.com 1.10,2013-02-13 19:03:00,
2013-02-13 13:19:00,34.8,27.0,29.73,ENE,58,6.0,10.0,74,0.00,,,0.00,weatherlink.com 1.10,2013-02-13 19:19:00,
2013-02-13 13:33:00,34.7,27.0,29.73,NE,49,6.0,8.0,74,0.00,,,0.00,weatherlink.com 1.10,2013-02-13 19:33:00,
2013-02-13 13:47:00,34.8,27.0,29.72,ENE,72,8.0,10.0,74,0.00,,,0.00,weatherlink.com 1.10,2013-02-13 19:47:00,
2013-02-13 14:03:00,34.7,28.0,29.71,ENE,64,5.0,8.0,75,0.01,,,0.01,weatherlink.com 1.10,2013-02-13 20:03:00,
2013-02-13 14:18:00,34.7,28.0,29.71,NE,41,5.0,8.0,75,0.01,,,0.01,weatherlink.com 1.10,2013-02-13 20:18:00,
2013-02-13 14:33:00,34.6,27.0,29.71,ENE,58,6.0,9.0,75,0.01,,,0.01,weatherlink.com 1.10,2013-02-13 20:33:00,
2013-02-13 14:48:00,34.6,28.0,29.71,East,91,5.0,8.0,76,0.01,,,0.01,weatherlink.com 1.10,2013-02-13 20:48:00,
2013-02-13 15:03:00,34.8,28.0,29.71,ENE,63,5.0,7.0,76,0.01,,,0.02,weatherlink.com 1.10,2013-02-13 21:03:00,
2013-02-13 15:18:00,35.2,29.0,29.71,NE,47,3.0,6.0,77,0.01,,,0.02,weatherlink.com 1.10,2013-02-13 21:18:00,
2013-02-13 15:33:00,35.3,28.0,29.71,NE,49,3.0,6.0,76,0.02,,,0.03,weatherlink.com 1.10,2013-02-13 21:33:00,
2013-02-13 15:48:00,35.3,29.0,29.71,NE,47,5.0,7.0,77,0.02,,,0.03,weatherlink.com 1.10,2013-02-13 21:48:00,
2013-02-13 16:03:00,34.7,29.0,29.71,NNE,25,6.0,9.0,79,0.01,,,0.03,weatherlink.com 1.10,2013-02-13 22:03:00,
2013-02-13 16:18:00,33.8,29.0,29.70,NNE,17,4.0,9.0,83,0.01,,,0.03,weatherlink.com 1.10,2013-02-13 22:18:00,
2013-02-13 16:33:00,33.4,30.0,29.70,NNE,32,4.0,8.0,86,0.01,,,0.04,weatherlink.com 1.10,2013-02-13 22:33:00,
2013-02-13 16:48:00,33.0,30.0,29.70,North,1,6.0,9.0,88,0.01,,,0.04,weatherlink.com 1.10,2013-02-13 22:48:00,
2013-02-13 17:03:00,32.8,30.0,29.70,NNE,22,3.0,5.0,90,0.01,,,0.04,weatherlink.com 1.10,2013-02-13 23:03:00,
2013-02-13 17:18:00,32.3,30.0,29.70,North,11,3.0,5.0,91,0.01,,,0.04,weatherlink.com 1.10,2013-02-13 23:18:00,
2013-02-13 17:33:00,32.0,30.0,29.69,NW,322,4.0,5.0,92,0.00,,,0.04,weatherlink.com 1.10,2013-02-13 23:33:00,
2013-02-13 17:48:00,31.7,30.0,29.69,NW,318,4.0,6.0,93,0.00,,,0.04,weatherlink.com 1.10,2013-02-13 23:48:00,
2013-02-13 18:03:00,31.6,30.0,29.69,NW,321,2.0,6.0,94,0.00,,,0.04,weatherlink.com 1.10,2013-02-14 00:03:00,
2013-02-13 18:18:00,31.5,30.0,29.69,NW,321,2.0,5.0,95,0.00,,,0.04,weatherlink.com 1.10,2013-02-14 00:18:00,
2013-02-13 18:33:00,31.5,30.0,29.68,NNW,329,3.0,5.0,95,0.00,,,0.04,weatherlink.com 1.10,2013-02-14 00:33:00,
2013-02-13 18:48:00,31.5,31.0,29.69,NW,312,2.0,4.0,96,0.00,,,0.04,weatherlink.com 1.10,2013-02-14 00:48:00,
2013-02-13 19:03:00,31.6,31.0,29.69,NW,313,2.0,3.0,96,0.00,,,0.04,weatherlink.com 1.10,2013-02-14 01:03:00,
2013-02-13 19:18:00,31.6,31.0,29.69,NNE,21,1.0,3.0,96,0.00,,,0.04,weatherlink.com 1.10,2013-02-14 01:18:00,
2013-02-13 19:33:00,31.7,31.0,29.68,NW,313,1.0,3.0,96,0.00,,,0.04,weatherlink.com 1.10,2013-02-14 01:33:00,
2013-02-13 19:48:00,31.7,31.0,29.67,WNW,294,1.0,2.0,96,0.00,,,0.04,weatherlink.com 1.10,2013-02-14 01:48:00,
2013-02-13 20:03:00,31.6,31.0,29.67,WSW,256,1.0,2.0,96,0.00,,,0.04,weatherlink.com 1.10,2013-02-14 02:03:00,
2013-02-13 20:18:00,31.7,31.0,29.66,WSW,250,1.0,2.0,96,0.00,,,0.04,weatherlink.com 1.10,2013-02-14 02:18:00,
2013-02-13 20:33:00,31.6,31.0,29.66,SW,231,1.0,3.0,96,0.00,,,0.04,weatherlink.com 1.10,2013-02-14 02:33:00,
2013-02-13 20:48:00,31.6,31.0,29.66,SW,228,1.0,2.0,97,0.00,,,0.04,weatherlink.com 1.10,2013-02-14 02:48:00,
2013-02-13 21:03:00,31.7,31.0,29.66,SW,217,1.0,2.0,97,0.00,,,0.04,weatherlink.com 1.10,2013-02-14 03:03:00,
2013-02-13 21:18:00,31.6,31.0,29.66,SW,221,3.0,3.0,97,0.00,,,0.04,weatherlink.com 1.10,2013-02-14 03:18:00,
2013-02-13 21:33:00,31.6,31.0,29.65,SSW,208,2.0,3.0,97,0.00,,,0.04,weatherlink.com 1.10,2013-02-14 03:33:00,
2013-02-13 21:49:00,31.5,31.0,29.66,SSW,196,2.0,3.0,97,0.00,,,0.04,weatherlink.com 1.10,2013-02-14 03:49:00,
2013-02-13 22:03:00,31.4,31.0,29.66,SSE,159,1.0,3.0,97,0.00,,,0.04,weatherlink.com 1.10,2013-02-14 04:03:00,
2013-02-13 22:18:00,31.3,31.0,29.66,South,174,1.0,3.0,97,0.00,,,0.04,weatherlink.com 1.10,2013-02-14 04:18:00,
2013-02-13 23:18:00,31.0,30.0,29.68,SSW,198,4.0,7.0,97,0.00,,,0.04,weatherlink.com 1.10,2013-02-14 05:18:00,
2013-02-13 23:34:00,31.0,30.0,29.68,SSW,201,5.0,7.0,97,0.00,,,0.04,weatherlink.com 1.10,2013-02-14 05:34:00,
2013-02-13 23:49:00,31.0,30.0,29.69,SSE,166,3.0,7.0,97,0.00,,,0.04,weatherlink.com 1.10,2013-02-14 05:49:00,